Time,TemperatureF,DewpointF,PressureIn,WindDirection,WindDirectionDegrees,WindSpeedMPH,WindSpeedGustMPH,Humidity,HourlyPrecipIn,Conditions,Clouds,dailyrainin,SoftwareType,DateUTC
2013-02-13 00:01:00,69.0,58.0,-100.00,ENE,60,8.0,12.0,67,0.00,,,0.00,,2013-02-13 10:01:00,
2013-02-13 00:11:00,69.0,58.0,-100.00,ENE,60,8.0,12.0,67,0.00,,,0.00,,2013-02-13 10:11:00,
2013-02-13 00:21:00,69.0,58.0,-100.00,ENE,60,8.0,12.0,67,0.00,,,0.00,,2013-02-13 10:21:00,
2013-02-13 00:31:00,69.0,58.0,-100.00,ENE,60,8.0,12.0,67,0.00,,,0.00,,2013-02-13 10:31:00,
2013-02-13 00:41:00,69.0,57.0,-100.00,NNE,21,4.0,11.0,65,0.00,,,0.00,,2013-02-13 10:41:00,
2013-02-13 01:01:00,69.0,57.0,-100.00,NNE,21,4.0,11.0,65,0.00,,,0.00,,2013-02-13 11:01:00,
2013-02-13 01:11:00,69.0,57.0,-100.00,NNE,21,4.0,11.0,65,0.00,,,0.00,,2013-02-13 11:11:00,
2013-02-13 01:22:00,69.0,57.0,-100.00,NNE,21,4.0,11.0,65,0.00,,,0.00,,2013-02-13 11:22:00,
2013-02-13 01:32:00,69.0,57.0,-100.00,NNE,21,4.0,11.0,65,0.00,,,0.00,,2013-02-13 11:32:00,
2013-02-13 01:41:00,68.0,57.0,-100.00,North,7,4.0,7.0,67,0.00,,,0.00,,2013-02-13 11:41:00,
2013-02-13 02:02:00,68.0,57.0,-100.00,North,7,4.0,7.0,67,0.00,,,0.00,,2013-02-13 12:02:00,
2013-02-13 02:11:00,68.0,57.0,-100.00,North,7,4.0,7.0,67,0.00,,,0.00,,2013-02-13 12:11:00,
2013-02-13 02:21:00,68.0,57.0,-100.00,North,7,4.0,7.0,67,0.00,,,0.00,,2013-02-13 12:21:00,
2013-02-13 02:32:00,68.0,57.0,-100.00,North,7,4.0,7.0,67,0.00,,,0.00,,2013-02-13 12:32:00,
2013-02-13 02:41:00,69.0,57.0,-100.00,NE,51,6.0,11.0,65,0.00,,,0.00,,2013-02-13 12:41:00,
2013-02-13 03:02:00,69.0,57.0,-100.00,NE,51,6.0,11.0,65,0.00,,,0.00,,2013-02-13 13:02:00,
2013-02-13 03:11:00,69.0,57.0,-100.00,NE,51,6.0,11.0,65,0.00,,,0.00,,2013-02-13 13:11:00,
2013-02-13 03:21:00,69.0,57.0,-100.00,NE,51,6.0,11.0,65,0.00,,,0.00,,2013-02-13 13:21:00,
2013-02-13 03:31:00,69.0,57.0,-100.00,NE,51,6.0,11.0,65,0.00,,,0.00,,2013-02-13 13:31:00,
2013-02-13 03:41:00,69.0,57.0,-100.00,NE,47,6.0,12.0,65,0.00,,,0.00,,2013-02-13 13:41:00,
2013-02-13 04:01:00,69.0,57.0,-100.00,NE,47,6.0,12.0,65,0.00,,,0.00,,2013-02-13 14:01:00,
2013-02-13 04:11:00,69.0,57.0,-100.00,NE,47,6.0,12.0,65,0.00,,,0.00,,2013-02-13 14:11:00,
2013-02-13 04:21:00,69.0,57.0,-100.00,NE,47,6.0,12.0,65,0.00,,,0.00,,2013-02-13 14:21:00,
2013-02-13 04:31:00,69.0,57.0,-100.00,NE,47,6.0,12.0,65,0.00,,,0.00,,2013-02-13 14:31:00,
2013-02-13 04:41:00,69.0,57.0,-100.00,NNE,25,5.0,10.0,66,0.00,,,0.00,,2013-02-13 14:41:00,
2013-02-13 05:01:00,69.0,57.0,-100.00,NNE,25,5.0,10.0,66,0.00,,,0.00,,2013-02-13 15:01:00,
2013-02-13 05:11:00,69.0,57.0,-100.00,NNE,25,5.0,10.0,66,0.00,,,0.00,,2013-02-13 15:11:00,
2013-02-13 05:21:00,69.0,57.0,-100.00,NNE,25,5.0,10.0,66,0.00,,,0.00,,2013-02-13 15:21:00,
2013-02-13 05:31:00,69.0,57.0,-100.00,NNE,25,5.0,10.0,66,0.00,,,0.00,,2013-02-13 15:31:00,
2013-02-13 05:41:00,68.0,56.0,-100.00,NE,50,5.0,10.0,65,0.00,,,0.00,,2013-02-13 15:41:00,
2013-02-13 06:01:00,68.0,56.0,-100.00,NE,50,5.0,10.0,65,0.00,,,0.00,,2013-02-13 16:01:00,
2013-02-13 06:11:00,68.0,56.0,-100.00,NE,50,5.0,10.0,65,0.00,,,0.00,,2013-02-13 16:11:00,
2013-02-13 06:21:00,68.0,56.0,-100.00,NE,50,5.0,10.0,65,0.00,,,0.00,,2013-02-13 16:21:00,
2013-02-13 06:31:00,68.0,56.0,-100.00,NE,50,5.0,10.0,65,0.00,,,0.00,,2013-02-13 16:31:00,
2013-02-13 06:41:00,64.0,53.0,-100.00,NW,305,3.0,10.0,67,0.00,,,0.00,,2013-02-13 16:41:00,
2013-02-13 07:01:00,64.0,53.0,-100.00,NW,305,3.0,10.0,67,0.00,,,0.00,,2013-02-13 17:01:00,
2013-02-13 07:11:00,64.0,53.0,-100.00,NW,305,3.0,10.0,67,0.00,,,0.00,,2013-02-13 17:11:00,
2013-02-13 07:21:00,64.0,53.0,-100.00,NW,305,3.0,10.0,67,0.00,,,0.00,,2013-02-13 17:21:00,
2013-02-13 07:31:00,64.0,53.0,-100.00,NW,305,3.0,10.0,67,0.00,,,0.00,,2013-02-13 17:31:00,
2013-02-13 07:41:00,66.0,59.0,-100.00,NNW,336,2.0,4.0,79,0.00,,,0.00,,2013-02-13 17:41:00,
2013-02-13 08:01:00,66.0,59.0,-100.00,NNW,336,2.0,4.0,79,0.00,,,0.00,,2013-02-13 18:01:00,
2013-02-13 08:11:00,66.0,59.0,-100.00,NNW,336,2.0,4.0,79,0.00,,,0.00,,2013-02-13 18:11:00,
2013-02-13 08:22:00,66.0,59.0,-100.00,NNW,336,2.0,4.0,79,0.00,,,0.00,,2013-02-13 18:22:00,
2013-02-13 08:31:00,66.0,59.0,-100.00,NNW,336,2.0,4.0,79,0.00,,,0.00,,2013-02-13 18:31:00,
2013-02-13 08:41:00,70.0,55.0,-100.00,North,358,5.0,9.0,59,0.00,,,0.00,,2013-02-13 18:41:00,
2013-02-13 09:01:00,70.0,55.0,-100.00,North,358,5.0,9.0,59,0.00,,,0.00,,2013-02-13 19:01:00,
2013-02-13 09:11:00,70.0,55.0,-100.00,North,358,5.0,9.0,59,0.00,,,0.00,,2013-02-13 19:11:00,
2013-02-13 09:21:00,70.0,55.0,-100.00,North,358,5.0,9.0,59,0.00,,,0.00,,2013-02-13 19:21:00,
2013-02-13 09:31:00,70.0,55.0,-100.00,North,358,5.0,9.0,59,0.00,,,0.00,,2013-02-13 19:31:00,
2013-02-13 09:41:00,71.0,57.0,-100.00,ENE,65,8.0,16.0,62,0.00,,,0.00,,2013-02-13 19:41:00,
2013-02-13 10:02:00,71.0,57.0,-100.00,ENE,65,8.0,16.0,62,0.00,,,0.00,,2013-02-13 20:02:00,
2013-02-13 10:11:00,71.0,57.0,-100.00,ENE,65,8.0,16.0,62,0.00,,,0.00,,2013-02-13 20:11:00,
2013-02-13 10:21:00,71.0,57.0,-100.00,ENE,65,8.0,16.0,62,0.00,,,0.00,,2013-02-13 20:21:00,
2013-02-13 10:31:00,71.0,57.0,-100.00,ENE,65,8.0,16.0,62,0.00,,,0.00,,2013-02-13 20:31:00,
2013-02-13 10:41:00,74.0,60.0,-100.00,NE,39,5.0,16.0,62,0.00,,,0.00,,2013-02-13 20:41:00,
2013-02-13 11:01:00,74.0,60.0,-100.00,NE,39,5.0,16.0,62,0.00,,,0.00,,2013-02-13 21:01:00,
2013-02-13 11:11:00,74.0,60.0,-100.00,NE,39,5.0,16.0,62,0.00,,,0.00,,2013-02-13 21:11:00,
2013-02-13 11:21:00,74.0,60.0,-100.00,NE,39,5.0,16.0,62,0.00,,,0.00,,2013-02-13 21:21:00,
2013-02-13 11:31:00,74.0,60.0,-100.00,NE,39,5.0,16.0,62,0.00,,,0.00,,2013-02-13 21:31:00,
2013-02-13 11:41:00,75.0,57.0,-100.00,NE,46,5.0,14.0,53,0.00,,,0.00,,2013-02-13 21:41:00,
2013-02-13 12:02:00,75.0,57.0,-100.00,NE,46,5.0,14.0,53,0.00,,,0.00,,2013-02-13 22:02:00,
2013-02-13 12:11:00,75.0,57.0,-100.00,NE,46,5.0,14.0,53,0.00,,,0.00,,2013-02-13 22:11:00,
2013-02-13 12:21:00,75.0,57.0,-100.00,NE,46,5.0,14.0,53,0.00,,,0.00,,2013-02-13 22:21:00,
2013-02-13 12:31:00,75.0,57.0,-100.00,NE,46,5.0,14.0,53,0.00,,,0.00,,2013-02-13 22:31:00,
2013-02-13 12:41:00,74.0,56.0,-100.00,ENE,62,8.0,15.0,53,0.00,,,0.00,,2013-02-13 22:41:00,
2013-02-13 13:01:00,74.0,56.0,-100.00,ENE,62,8.0,15.0,53,0.00,,,0.00,,2013-02-13 23:01:00,
2013-02-13 13:11:00,74.0,56.0,-100.00,ENE,62,8.0,15.0,53,0.00,,,0.00,,2013-02-13 23:11:00,
2013-02-13 13:21:00,74.0,56.0,-100.00,ENE,62,8.0,15.0,53,0.00,,,0.00,,2013-02-13 23:21:00,
2013-02-13 13:31:00,74.0,56.0,-100.00,ENE,62,8.0,15.0,53,0.00,,,0.00,,2013-02-13 23:31:00,
2013-02-13 13:41:00,74.0,56.0,-100.00,NE,46,8.0,16.0,54,0.00,,,0.00,,2013-02-13 23:41:00,
2013-02-13 14:01:00,74.0,56.0,-100.00,NE,46,8.0,16.0,54,0.00,,,0.00,,2013-02-14 00:01:00,
2013-02-13 14:11:00,74.0,56.0,-100.00,NE,46,8.0,16.0,54,0.00,,,0.00,,2013-02-14 00:11:00,
2013-02-13 14:21:00,74.0,56.0,-100.00,NE,46,8.0,16.0,54,0.00,,,0.00,,2013-02-14 00:21:00,
2013-02-13 14:31:00,74.0,56.0,-100.00,NE,46,8.0,16.0,54,0.00,,,0.00,,2013-02-14 00:31:00,
2013-02-13 14:41:00,75.0,59.0,-100.00,ENE,74,9.0,15.0,57,0.00,,,0.00,,2013-02-14 00:41:00,
2013-02-13 15:01:00,75.0,59.0,-100.00,ENE,74,9.0,15.0,57,0.00,,,0.00,,2013-02-14 01:01:00,
2013-02-13 15:11:00,75.0,59.0,-100.00,ENE,74,9.0,15.0,57,0.00,,,0.00,,2013-02-14 01:11:00,
2013-02-13 15:21:00,75.0,59.0,-100.00,ENE,74,9.0,15.0,57,0.00,,,0.00,,2013-02-14 01:21:00,
2013-02-13 15:31:00,75.0,59.0,-100.00,ENE,74,9.0,15.0,57,0.00,,,0.00,,2013-02-14 01:31:00,
2013-02-13 15:41:00,74.0,56.0,-100.00,ENE,63,8.0,19.0,54,0.00,,,0.00,,2013-02-14 01:41:00,
2013-02-13 16:01:00,74.0,56.0,-100.00,ENE,63,8.0,19.0,54,0.00,,,0.00,,2013-02-14 02:01:00,
2013-02-13 16:11:00,74.0,56.0,-100.00,ENE,63,8.0,19.0,54,0.00,,,0.00,,2013-02-14 02:11:00,
2013-02-13 16:21:00,74.0,56.0,-100.00,ENE,63,8.0,19.0,54,0.00,,,0.00,,2013-02-14 02:21:00,
2013-02-13 16:31:00,74.0,56.0,-100.00,ENE,63,8.0,19.0,54,0.00,,,0.00,,2013-02-14 02:31:00,
2013-02-13 16:41:00,74.0,57.0,-100.00,ENE,69,9.0,15.0,56,0.00,,,0.00,,2013-02-14 02:41:00,
2013-02-13 17:02:00,74.0,57.0,-100.00,ENE,69,9.0,15.0,56,0.00,,,0.00,,2013-02-14 03:02:00,
2013-02-13 17:11:00,74.0,57.0,-100.00,ENE,69,9.0,15.0,56,0.00,,,0.00,,2013-02-14 03:11:00,
2013-02-13 17:21:00,74.0,57.0,-100.00,ENE,69,9.0,15.0,56,0.00,,,0.00,,2013-02-14 03:21:00,
2013-02-13 17:31:00,74.0,57.0,-100.00,ENE,69,9.0,15.0,56,0.00,,,0.00,,2013-02-14 03:31:00,
2013-02-13 17:41:00,72.0,58.0,-100.00,NE,54,7.0,15.0,61,0.00,,,0.00,,2013-02-14 03:41:00,
2013-02-13 18:01:00,72.0,58.0,-100.00,NE,54,7.0,15.0,61,0.00,,,0.00,,2013-02-14 04:01:00,
2013-02-13 18:11:00,72.0,58.0,-100.00,NE,54,7.0,15.0,61,0.00,,,0.00,,2013-02-14 04:11:00,
2013-02-13 18:21:00,72.0,58.0,-100.00,NE,54,7.0,15.0,61,0.00,,,0.00,,2013-02-14 04:21:00,
2013-02-13 18:31:00,72.0,58.0,-100.00,NE,54,7.0,15.0,61,0.00,,,0.00,,2013-02-14 04:31:00,
2013-02-13 18:41:00,71.0,59.0,-100.00,NNE,20,6.0,15.0,66,0.00,,,0.00,,2013-02-14 04:41:00,
2013-02-13 19:01:00,71.0,59.0,-100.00,NNE,20,6.0,15.0,66,0.00,,,0.00,,2013-02-14 05:01:00,
2013-02-13 19:11:00,71.0,59.0,-100.00,NNE,20,6.0,15.0,66,0.00,,,0.00,,2013-02-14 05:11:00,
2013-02-13 19:21:00,71.0,59.0,-100.00,NNE,20,6.0,15.0,66,0.00,,,0.00,,2013-02-14 05:21:00,
2013-02-13 19:31:00,71.0,59.0,-100.00,NNE,20,6.0,15.0,66,0.00,,,0.00,,2013-02-14 05:31:00,
2013-02-13 19:41:00,70.0,58.0,-100.00,NE,37,6.0,11.0,66,0.00,,,0.00,,2013-02-14 05:41:00,
2013-02-13 20:02:00,70.0,58.0,-100.00,NE,37,6.0,11.0,66,0.00,,,0.00,,2013-02-14 06:02:00,
2013-02-13 20:11:00,70.0,58.0,-100.00,NE,37,6.0,11.0,66,0.00,,,0.00,,2013-02-14 06:11:00,
2013-02-13 20:21:00,70.0,58.0,-100.00,NE,37,6.0,11.0,66,0.00,,,0.00,,2013-02-14 06:21:00,
2013-02-13 20:31:00,70.0,58.0,-100.00,NE,37,6.0,11.0,66,0.00,,,0.00,,2013-02-14 06:31:00,
2013-02-13 20:41:00,70.0,59.0,-100.00,North,1,6.0,10.0,67,0.00,,,0.00,,2013-02-14 06:41:00,
2013-02-13 21:01:00,70.0,59.0,-100.00,North,1,6.0,10.0,67,0.00,,,0.00,,2013-02-14 07:01:00,
2013-02-13 21:11:00,70.0,59.0,-100.00,North,1,6.0,10.0,67,0.00,,,0.00,,2013-02-14 07:11:00,
2013-02-13 21:21:00,70.0,59.0,-100.00,North,1,6.0,10.0,67,0.00,,,0.00,,2013-02-14 07:21:00,
2013-02-13 21:31:00,70.0,59.0,-100.00,North,1,6.0,10.0,67,0.00,,,0.00,,2013-02-14 07:31:00,
2013-02-13 21:41:00,69.0,60.0,-100.00,NNW,343,6.0,10.0,72,0.00,,,0.00,,2013-02-14 07:41:00,
2013-02-13 22:01:00,69.0,60.0,-100.00,NNW,343,6.0,10.0,72,0.00,,,0.00,,2013-02-14 08:01:00,
2013-02-13 22:11:00,69.0,60.0,-100.00,NNW,343,6.0,10.0,72,0.00,,,0.00,,2013-02-14 08:11:00,
2013-02-13 22:21:00,69.0,60.0,-100.00,NNW,343,6.0,10.0,72,0.00,,,0.00,,2013-02-14 08:21:00,
2013-02-13 22:31:00,69.0,60.0,-100.00,NNW,343,6.0,10.0,72,0.00,,,0.00,,2013-02-14 08:31:00,
2013-02-13 22:41:00,69.0,59.0,-100.00,North,354,5.0,9.0,71,0.00,,,0.00,,2013-02-14 08:41:00,
2013-02-13 23:01:00,69.0,59.0,-100.00,North,354,5.0,9.0,71,0.00,,,0.00,,2013-02-14 09:01:00,
2013-02-13 23:11:00,69.0,59.0,-100.00,North,354,5.0,9.0,71,0.00,,,0.00,,2013-02-14 09:11:00,
2013-02-13 23:21:00,69.0,59.0,-100.00,North,354,5.0,9.0,71,0.00,,,0.00,,2013-02-14 09:21:00,
2013-02-13 23:31:00,69.0,59.0,-100.00,North,354,5.0,9.0,71,0.00,,,0.00,,2013-02-14 09:31:00,
2013-02-13 23:41:00,68.0,59.0,-100.00,North,355,5.0,13.0,72,0.00,,,0.00,,2013-02-14 09:41:00,